{"data":{"norad_id":51734,"epoch":"2026-05-24T19:52:38.232192Z","epoch_age_seconds":90083,"freshness":"FRESH","line1":"1 51734U 22016W   26144.82822028 -.00001361  00000+0 -67467-4 0  9996","line2":"2 51734  53.2132 337.3218 0001180  90.0242 270.0886 15.08823704235056","mean_motion":15.08823704,"eccentricity":0.000118,"inclination_deg":53.2132,"raan_deg":337.3218,"arg_perigee_deg":90.0242,"mean_anomaly_deg":270.0886,"bstar":-6.7467e-5,"rev_number":23505,"period_min":95.438585447886,"perigee_km":538.97688400153,"apogee_km":540.60951552867,"semimajor_km":6917.9301997651,"source":"CELESTRAK","updated_at":"2026-05-25T13:38:16.923538Z"}}